Regional Weather Roundup
Issued by NWS Sioux Falls, SD

Home | Current Version | Previous Version | Text Only | Print | Product List | Glossary On
Versions: 1 2 3 4 5 6 7 8 9 10 11 12 13 14 15 16 17 18 19 20 21 22 23 24 25 26 27 28 29 30 31 32 33 34 35 36 37 38 39 40 41 42 43 44 45 46 47 48 49 50
000
ASUS43 KFSD 301202
RWRFSD

WEATHER ROUNDUP FOR SE SOUTH DAKOTA/SW MINNESOTA/NW IOWA
NATIONAL WEATHER SERVICE SIOUX FALLS SD
600 AM CST FRI JAN 30 2015

NOTE: "FAIR" INDICATES FEW OR NO CLOUDS BELOW 12,000 FEET WITH NO
SIGNIFICANT WEATHER AND OR OBSTRUCTIONS TO VISIBILITY.


SDZ038>040-050-052>070-301300-
SOUTHEAST SOUTH DAKOTA

CITY           SKY/WX    TMP DP  RH WIND       PRES   REMARKS
CHAMBERLAIN    NOT AVBL
HURON          CLEAR     17  14  88 SE8       30.43F WCI   7
6HR MIN TEMP:  17; 6HR MAX TEMP:  19;

MADISON        FAIR      16  16 100 S6        30.43F WCI   7
MITCHELL       CLEAR     20  17  88 SE7       30.45F WCI  11
6HR MIN TEMP:  19; 6HR MAX TEMP:  21;

SIOUX FALLS    MOCLDY    19  15  84 S6        30.46F WCI  11
6HR MIN TEMP:  18; 6HR MAX TEMP:  22;

WINNER         FAIR      26  20  77 S15       30.32F WCI  14
YANKTON        PTCLDY    18  16  93 S5        30.48F WCI  11
$$

MNZ071-072-080-081-089-090-097-098-301300-
SOUTHWEST MINNESOTA

CITY           SKY/WX    TMP DP  RH WIND       PRES   REMARKS
FAIRMONT       CLEAR     12   7  79 CALM      30.48F
JACKSON        PTCLDY    12   9  85 CALM      30.48S
LUVERNE        CLOUDY    21  18  86 SE5       30.48F WCI  15
MARSHALL       CLOUDY    16  10  79 SW9       30.49S WCI   4
6HR MIN TEMP:  16; 6HR MAX TEMP:  18;

MONTEVIDEO     MOCLDY    10   9  92 S3        30.50S
PIPESTONE      CLOUDY    18  16  93 SW8       30.44F WCI   7
REDWOOD FALLS  CLEAR     12   7  80 CALM      30.50F
TRACY          CLOUDY    16  13  87 CALM      30.48F
WINDOM         CLEAR     10   9  92 CALM      30.48S
WORTHINGTON    CLOUDY    14  10  85 CALM      30.47F
$$

IAZ001>003-012>014-020>022-031-032-NEZ013-014-SDZ071-301300-
NORTHWEST IOWA

CITY           SKY/WX    TMP DP  RH WIND       PRES   REMARKS
ESTHERVILLE    CLEAR     12   9  87 SW3       30.50F
SIOUX CITY     CLEAR     17  14  88 SE6       30.51F WCI   9
6HR MIN TEMP:  16; 6HR MAX TEMP:  24;

SPENCER        CLEAR     14  10  84 E5        30.49F WCI   6
6HR MIN TEMP:  14; 6HR MAX TEMP:  19;

$$

ABBREVIATIONS USED IN REMARKS
   TC - TEMPERATURE IN CELSIUS
  WCI - WIND CHILL INDEX
   HX - HEAT INDEX
  VSB - VISIBILITY



USA.gov is the U.S. government's official web portal to all federal, state and local government web resources and services.